Location: Bli��� Lhota
(48.7570°N, 14.0120°E)
Time: 08:48:02
(UTC+00:00)

Cosmos 2098 Rocket - Pass Details

Date: 18 September 2020
Orbit: 366 x 1185 km, 82.9° (Epoch: 24 October)

Event Time Altitude Azimuth Distance (km) Brightness Sun altitude
Rises 20:51:31 0° 348° (NNW) 4,070 8.1 -32.9°
Reaches altitude 10° 20:54:21 10° 346° (NNW) 3,063 7.3 -33.2°
Enters shadow 21:01:10 63° 282° (WNW) 1,174 4.4 -33.8°
